Погода в Бохумине

Чехия     49°54′12″N   18°21′16″E
темп.,
°C
ветер,
м/с
пор.,
м/с
влажн.,
%
обл.,
%
осадки,
мм/ч
давл.,
гПа
погр.,
м
9 марта, вт
вт901:00−2сз126936 0.0 102431
04:00−2ссз117151 0.0 102334
07:00−2св006826 0.0 102366
10:00+1вюв115191 0.0 1023986
13:00+2вюв114196 0.0 10221254
16:00+2св114198 0.0 10201089
19:000св225399 0.0 102147
22:00−1св115891 0.0 102224
10 марта, ср
ср1001:00−2с116165 0.0 102129
04:00−2всв006428 0.0 102127
07:00−2всв006314 0.0 102246
10:00+2в12480 0.0 1022895
13:00+3св22380 0.0 10221370
16:00+3ссв22390 0.0 10211221
19:000всв12520 0.0 102341
22:00−1ююв12550 0.0 102327
11 марта, чт
чт1101:00−1ю12560 0.0 102323
04:00−1ююв23550 0.0 102184
07:00−1ююв365118 0.0 1021172
10:00+4ююз6104796 0.0 1019871
13:00+6ююз7115098 0.0 10171087
16:00+5ююз71357100 0.0 10141020
19:00+3ююз12208898 0.1 1013562
22:00+4ююз7167797 0.1 1011631
12 марта, пт
пт1201:00+5юз8177398 0.2 1010674
04:00+4юз91586100 0.3 1011553
07:00+4юз7128881 0.3 1013329
10:00+7зюз8106542 0.2 10151165
13:00+9з795032 0.3 10151555
16:00+9зюз585110 0.0 10141431
19:00+5юз35675 0.0 101596
22:00+4юз47713 0.0 1016157
13 марта, сб
сб1301:00+4юз6118144 0.0 1015297
04:00+3юз6139034 0.0 1014379
07:00+4юз7148637 0.0 1014546
10:00+6юз91376100 0.0 1014848
13:00+9юз81260100 0.0 10131425
16:00+10юз71255100 0.1 10111607
19:00+8юз61462100 0.1 1011773
22:00+7юз81668100 0.0 1010717